N5ZKK Weather Reports


Display with metric or nautical units.
time (UTC)temp
F
wind
direction
speed
MPH
gust
MPH
rain 1hr
in
rain 24hr
in
rain mn
in
humidity
%
barometer
mb
20260504003901 72 157 4.0 7.0 0.00 0.00 0.00 45 1017.4
20260504003526 73 158 4.0 8.0 0.00 0.00 0.00 46 1019.4
20260504002527 73 154 5.0 7.0 0.00 0.00 0.00 45 1019.5
20260504001529 74 156 5.0 8.0 0.00 0.00 0.00 44 1019.6
20260504000901 75 174 4.0 7.0 0.00 0.00 0.00 43 1017.4
20260504000525 75 174 5.0 8.0 0.00 0.00 0.00 43 1019.6
20260503235521 76 184 6.0 12.0 0.00 0.00 0.00 42 1019.8
20260503234517 77 126 5.0 9.0 0.00 0.00 0.00 42 1019.8
20260503233901 76 151 6.0 10.0 0.00 0.00 0.00 40 1017.4
20260503233519 77 152 7.0 11.0 0.00 0.00 0.00 41 1019.8
20260503232521 78 162 5.0 9.0 0.00 0.00 0.00 39 1019.8
20260503231523 79 138 5.0 9.0 0.00 0.00 0.00 40 1019.9
20260503230901 76 143 6.0 10.0 0.00 0.00 0.00 40 1017.7
20260503230526 77 144 6.0 11.0 0.00 0.00 0.00 40 1020.0
20260503225528 76 177 5.0 7.0 0.00 0.00 0.00 41 1019.9
20260503224531 77 156 6.0 9.0 0.00 0.00 0.00 41 1020.0
20260503223901 76 169 6.0 12.0 0.00 0.00 0.00 39 1017.7
20260503223552 77 169 7.0 13.0 0.00 0.00 0.00 40 1020.1
20260503222517 78 141 7.0 11.0 0.00 0.00 0.00 38 1020.1
20260503221519 79 182 5.0 12.0 0.00 0.00 0.00 38 1020.1
20260503220901 78 132 6.0 9.0 0.00 0.00 0.00 37 1017.9
20260503220521 79 133 6.0 10.0 0.00 0.00 0.00 38 1020.4
20260503215524 79 152 8.0 11.0 0.00 0.00 0.00 37 1020.6
20260503214526 78 169 5.0 9.0 0.00 0.00 0.00 38 1020.8
20260503213901 77 157 6.0 9.0 0.00 0.00 0.00 37 1018.7
20260503213528 77 157 6.0 9.0 0.00 0.00 0.00 38 1021.1
20260503212524 78 136 5.0 8.0 0.00 0.00 0.00 36 1021.2
20260503211521 79 172 6.0 8.0 0.00 0.00 0.00 36 1021.4
20260503210901 78 179 7.0 11.0 0.00 0.00 0.00 36 1018.9
20260503210517 79 179 7.0 12.0 0.00 0.00 0.00 36 1021.5
20260503205539 79 157 6.0 10.0 0.00 0.00 0.00 36 1021.7
20260503204521 79 112 7.0 11.0 0.00 0.00 0.00 37 1022.1
20260503203901 79 152 5.0 10.0 0.00 0.00 0.00 37 1019.5
20260503203524 80 153 6.0 11.0 0.00 0.00 0.00 37 1022.2
20260503202527 78 183 4.0 8.0 0.00 0.00 0.00 38 1022.3
20260503201529 80 161 6.0 9.0 0.00 0.00 0.00 37 1022.4
20260503200901 79 155 6.0 10.0 0.00 0.00 0.00 37 1019.9
20260503200551 79 156 6.0 11.0 0.00 0.00 0.00 37 1022.5
20260503195555 79 163 7.0 13.0 0.00 0.00 0.00 38 1022.9
20260503194518 79 161 5.0 9.0 0.00 0.00 0.00 38 1023.1
20260503193901 79 170 5.0 7.0 0.00 0.00 0.00 38 1020.5
20260503193520 79 171 5.0 8.0 0.00 0.00 0.00 38 1023.2
20260503192523 79 129 5.0 8.0 0.00 0.00 0.00 36 1023.3
20260503191545 79 133 5.0 9.0 0.00 0.00 0.00 38 1023.4
20260503190901 77 171 6.0 11.0 0.00 0.00 0.00 37 1021.2
20260503190527 78 172 6.0 11.0 0.00 0.00 0.00 37 1023.7
20260503185529 81 133 4.0 7.0 0.00 0.00 0.00 37 1023.8
20260503184525 81 135 5.0 9.0 0.00 0.00 0.00 37 1023.9
20260503183901 77 165 6.0 9.0 0.00 0.00 0.00 36 1021.7
20260503183535 77 165 6.0 9.0 0.00 0.00 0.00 37 1024.2
20260503182518 78 121 5.0 9.0 0.00 0.00 0.00 39 1024.4
20260503181521 77 158 7.0 12.0 0.00 0.00 0.00 40 1024.5
20260503180901 76 156 4.0 8.0 0.00 0.00 0.00 39 1022.3
20260503180522 77 157 5.0 8.0 0.00 0.00 0.00 40 1024.6
20260503175525 76 165 7.0 14.0 0.00 0.00 0.00 42 1024.8
20260503174547 76 208 5.0 7.0 0.00 0.00 0.00 43 1024.8
20260503173901 75 149 4.0 7.0 0.00 0.00 0.00 43 1022.5
20260503173530 76 149 5.0 7.0 0.00 0.00 0.00 44 1025.2
20260503172531 75 184 5.0 10.0 0.00 0.00 0.00 43 1025.4
20260503171516 75 135 5.0 9.0 0.00 0.00 0.00 43 1025.5
20260503170901 75 165 5.0 10.0 0.00 0.00 0.00 41 1023.5
20260503170518 75 165 5.0 11.0 0.00 0.00 0.00 42 1025.7
20260503150901 71 154 3.0 4.0 0.00 0.00 0.00 57 1024.5
20260503150525 72 155 3.0 5.0 0.00 0.00 0.00 58 1026.4
20260503130901 50 0 0.0 0.0 0.00 0.00 0.00 99 1026.3
20260503130516 50 0.0 0.0 0.00 0.00 0.00 99 1025.6
20260503110524 43 0.0 0.0 0.00 0.00 0.00 99 1024.8
20260503081519 46 0.0 0.0 0.00 0.00 0.00 99 1024.4
20260503080901 45 0 0.0 0.0 0.00 0.00 0.00 99 1025.7
20260503080541 46 0.0 0.0 0.00 0.00 0.00 99 1024.5
20260503072530 46 0.0 0.0 0.00 0.00 0.00 99 1025.1
20260503071552 47 0.0 0.0 0.00 0.00 0.00 99 1025.2
20260503070901 46 0 0.0 0.0 0.00 0.00 0.00 99 1026.5
20260503070516 47 0.0 0.0 0.00 0.00 0.00 99 1025.3
20260503054516 48 0.0 0.0 0.00 0.00 0.00 99 1025.4
20260503053901 48 0 0.0 0.0 0.00 0.00 0.00 99 1026.2
20260503053518 49 0.0 0.0 0.00 0.00 0.00 99 1025.2
20260503052521 49 0.0 0.0 0.00 0.00 0.00 99 1025.2
20260503051517 49 0.0 0.0 0.00 0.00 0.00 99 1025.2
20260503050901 49 0 0.0 0.0 0.00 0.00 0.00 99 1026.0
20260503050525 49 0.0 0.0 0.00 0.00 0.00 99 1025.2
20260503045527 50 0.0 0.0 0.00 0.00 0.00 99 1025.2
20260503044529 50 0.0 0.0 0.00 0.00 0.00 98 1025.0
20260503043901 50 0 0.0 0.0 0.00 0.00 0.00 98 1026.0
20260503043531 50 0.0 0.0 0.00 0.00 0.00 98 1025.2
20260503042516 51 0.0 0.0 0.00 0.00 0.00 98 1025.2
20260503041538 51 0.0 0.0 0.00 0.00 0.00 97 1025.0
20260503040901 51 0 0.0 0.0 0.00 0.00 0.00 96 1025.4
20260503040520 51 0.0 0.0 0.00 0.00 0.00 96 1024.8
20260503035522 52 0.0 0.0 0.00 0.00 0.00 95 1024.8
20260503034544 52 0.0 0.0 0.00 0.00 0.00 94 1024.8
20260503033901 52 0 0.0 0.0 0.00 0.00 0.00 93 1024.9
20260503033527 53 0.0 0.0 0.00 0.00 0.00 93 1024.6
20260503032529 53 0.0 0.0 0.00 0.00 0.00 92 1024.5
20260503031611 54 0.0 0.0 0.00 0.00 0.00 89 1024.4
20260503030901 53 0 0.0 0.0 0.00 0.00 0.00 88 1024.7
20260503030535 54 0.0 0.0 0.00 0.00 0.00 89 1024.4
20260503025538 54 0.0 0.0 0.00 0.00 0.00 86 1024.2
20260503024540 55 0.0 0.0 0.00 0.00 0.00 82 1024.1
20260503023901 56 0 0.0 0.0 0.00 0.00 0.00 77 1023.9
20260503023515 56 0.0 0.0 0.00 0.00 0.00 77 1024.0
20260503022524 57 0.0 0.0 0.00 0.00 0.00 75 1023.9
20260503021525 59 0.0 0.0 0.00 0.00 0.00 73 1023.8
20260503020901 59 0 0.0 0.0 0.00 0.00 0.00 65 1023.3
20260503020528 60 0.0 0.0 0.00 0.00 0.00 66 1023.7
20260503015530 61 0.0 0.0 0.00 0.00 0.00 62 1023.3
20260503014532 62 0.0 0.0 0.00 0.00 0.00 59 1023.3
20260503013901 63 0 0.0 0.0 0.00 0.00 0.00 56 1022.2
20260503013537 64 0.0 0.0 0.00 0.00 0.00 56 1023.1
20260503012519 66 0.0 0.0 0.00 0.00 0.00 55 1023.0
20260503011541 67 61 1.0 2.0 0.00 0.00 0.00 49 1022.9
20260503010901 67 45 1.0 2.0 0.00 0.00 0.00 47 1021.4
20260503010523 68 45 2.0 2.0 0.00 0.00 0.00 47 1022.7
20260503005526 69 41 3.0 4.0 0.00 0.00 0.00 46 1022.7
20260503004528 70 57 3.0 6.0 0.00 0.00 0.00 44 1022.7